Time,TemperatureF,DewpointF,PressureIn,WindDirection,WindDirectionDegrees,WindSpeedMPH,WindSpeedGustMPH,Humidity,HourlyPrecipIn,Conditions,Clouds,dailyrainin,SoftwareType,DateUTC
2013-02-27 00:00:00,62.0,60.3,29.88,WSW,239,0.0,0.0,94,0.00,,,0.78,Wunderground v.1.15,2013-02-27 05:00:00,
2013-02-27 00:05:00,61.8,60.1,29.89,WSW,239,0.0,2.0,94,0.00,,,0.00,Wunderground v.1.15,2013-02-27 05:05:00,
2013-02-27 00:10:00,61.8,60.1,29.89,SW,214,0.0,2.0,94,0.00,,,0.00,Wunderground v.1.15,2013-02-27 05:10:00,
2013-02-27 00:20:00,61.7,60.0,29.89,WSW,252,0.0,2.0,94,0.00,,,0.00,Wunderground v.1.15,2013-02-27 05:20:00,
2013-02-27 00:30:00,61.7,60.0,29.89,SSW,210,0.0,0.0,94,0.00,,,0.00,Wunderground v.1.15,2013-02-27 05:30:00,
2013-02-27 00:40:00,61.7,60.3,29.89,NNW,348,0.0,0.0,95,0.00,,,0.00,Wunderground v.1.15,2013-02-27 05:40:00,
2013-02-27 00:45:00,61.7,60.3,29.89,WSW,254,0.0,0.0,95,0.00,,,0.00,Wunderground v.1.15,2013-02-27 05:45:00,
2013-02-27 00:55:00,61.7,60.3,29.89,WSW,246,0.0,0.0,95,0.00,,,0.00,Wunderground v.1.15,2013-02-27 05:55:00,
2013-02-27 01:05:00,61.7,60.3,29.89,WSW,253,0.0,2.0,95,0.00,,,0.00,Wunderground v.1.15,2013-02-27 06:05:00,
2013-02-27 01:15:00,61.8,60.4,29.90,SW,226,0.0,2.0,95,0.00,,,0.00,Wunderground v.1.15,2013-02-27 06:15:00,
2013-02-27 01:25:00,61.8,60.4,29.90,South,190,0.0,2.0,95,0.00,,,0.00,Wunderground v.1.15,2013-02-27 06:25:00,
2013-02-27 01:30:00,61.8,60.4,29.90,SW,221,0.0,0.0,95,0.00,,,0.00,Wunderground v.1.15,2013-02-27 06:30:00,
2013-02-27 01:40:00,61.8,60.4,29.90,SSW,203,0.0,0.0,95,0.00,,,0.00,Wunderground v.1.15,2013-02-27 06:40:00,
2013-02-27 01:50:00,61.7,60.0,29.90,SSW,195,0.0,0.0,94,0.00,,,0.00,Wunderground v.1.15,2013-02-27 06:50:00,
2013-02-27 01:55:00,61.6,59.9,29.90,SW,224,0.0,0.0,94,0.00,,,0.00,Wunderground v.1.15,2013-02-27 06:55:00,
2013-02-27 02:05:00,61.5,59.8,29.90,WSW,245,0.0,1.0,94,0.00,,,0.00,Wunderground v.1.15,2013-02-27 07:05:00,
2013-02-27 02:15:00,61.5,59.8,29.90,SW,224,0.0,1.0,94,0.00,,,0.00,Wunderground v.1.15,2013-02-27 07:15:00,
2013-02-27 02:20:00,61.4,59.7,29.89,SW,222,0.0,1.0,94,0.00,,,0.00,Wunderground v.1.15,2013-02-27 07:20:00,
2013-02-27 02:25:00,61.4,59.7,29.90,SW,222,0.0,1.0,94,0.00,,,0.00,Wunderground v.1.15,2013-02-27 07:25:00,
2013-02-27 02:35:00,61.3,59.6,29.89,SW,226,0.0,0.0,94,0.00,,,0.00,Wunderground v.1.15,2013-02-27 07:35:00,
2013-02-27 02:45:00,61.2,59.5,29.89,SW,236,0.0,0.0,94,0.00,,,0.00,Wunderground v.1.15,2013-02-27 07:45:00,
2013-02-27 02:55:00,61.0,59.3,29.89,SW,236,0.0,0.0,94,0.00,,,0.00,Wunderground v.1.15,2013-02-27 07:55:00,
2013-02-27 03:05:00,60.8,59.1,29.89,SW,236,0.0,2.0,94,0.00,,,0.00,Wunderground v.1.15,2013-02-27 08:05:00,
2013-02-27 03:15:00,60.7,59.3,29.89,SW,236,0.0,2.0,95,0.00,,,0.00,Wunderground v.1.15,2013-02-27 08:15:00,
2013-02-27 03:25:00,60.5,58.8,29.89,SW,236,0.0,2.0,94,0.00,,,0.00,Wunderground v.1.15,2013-02-27 08:25:00,
2013-02-27 03:30:00,60.4,59.0,29.89,SW,236,0.0,0.0,95,0.00,,,0.00,Wunderground v.1.15,2013-02-27 08:30:00,
2013-02-27 03:40:00,60.4,59.0,29.89,West,263,0.0,0.0,95,0.00,,,0.00,Wunderground v.1.15,2013-02-27 08:40:00,
2013-02-27 03:50:00,60.3,58.9,29.90,North,354,0.0,0.0,95,0.00,,,0.00,Wunderground v.1.15,2013-02-27 08:50:00,
2013-02-27 03:55:00,60.3,58.9,29.90,WSW,242,0.0,0.0,95,0.00,,,0.00,Wunderground v.1.15,2013-02-27 08:55:00,
2013-02-27 04:05:00,60.3,58.6,29.90,WSW,246,0.0,0.0,94,0.00,,,0.00,Wunderground v.1.15,2013-02-27 09:05:00,
2013-02-27 04:15:00,60.1,58.4,29.90,NW,319,0.0,0.0,94,0.00,,,0.00,Wunderground v.1.15,2013-02-27 09:15:00,
2013-02-27 04:25:00,60.0,58.3,29.90,West,266,0.0,0.0,94,0.00,,,0.00,Wunderground v.1.15,2013-02-27 09:25:00,
2013-02-27 04:35:00,59.8,58.1,29.90,SW,235,0.0,0.0,94,0.00,,,0.00,Wunderground v.1.15,2013-02-27 09:35:00,
2013-02-27 04:40:00,59.7,58.0,29.90,WSW,242,0.0,0.0,94,0.00,,,0.00,Wunderground v.1.15,2013-02-27 09:40:00,
2013-02-27 04:50:00,59.5,57.8,29.90,WSW,238,0.0,0.0,94,0.00,,,0.00,Wunderground v.1.15,2013-02-27 09:50:00,
2013-02-27 05:00:00,59.4,57.4,29.91,SW,235,0.0,0.0,93,0.00,,,0.00,Wunderground v.1.15,2013-02-27 10:00:00,
2013-02-27 05:10:00,59.4,57.4,29.91,WSW,253,0.0,1.0,93,0.00,,,0.00,Wunderground v.1.15,2013-02-27 10:10:00,
2013-02-27 05:20:00,59.4,57.1,29.91,NW,311,0.0,1.0,92,0.00,,,0.00,Wunderground v.1.15,2013-02-27 10:20:00,
2013-02-27 05:25:00,59.4,57.1,29.91,NNW,345,0.0,1.0,92,0.00,,,0.00,Wunderground v.1.15,2013-02-27 10:25:00,
2013-02-27 05:35:00,59.4,57.1,29.91,WSW,256,0.0,0.0,92,0.00,,,0.00,Wunderground v.1.15,2013-02-27 10:35:00,
2013-02-27 05:45:00,59.2,56.6,29.91,WSW,256,0.0,0.0,91,0.00,,,0.00,Wunderground v.1.15,2013-02-27 10:45:00,
2013-02-27 05:50:00,59.1,56.5,29.91,WSW,245,0.0,0.0,91,0.00,,,0.00,Wunderground v.1.15,2013-02-27 10:50:00,
2013-02-27 06:00:00,58.9,56.3,29.92,WSW,245,0.0,0.0,91,0.00,,,0.00,Wunderground v.1.15,2013-02-27 11:00:00,
2013-02-27 06:10:00,58.5,55.9,29.92,WSW,245,0.0,1.0,91,0.00,,,0.00,Wunderground v.1.15,2013-02-27 11:10:00,
2013-02-27 06:15:00,58.3,55.7,29.92,WSW,244,0.0,1.0,91,0.00,,,0.00,Wunderground v.1.15,2013-02-27 11:15:00,
2013-02-27 06:25:00,57.8,55.5,29.92,WSW,244,0.0,1.0,92,0.00,,,0.00,Wunderground v.1.15,2013-02-27 11:25:00,
2013-02-27 06:35:00,57.5,55.2,29.92,WSW,245,0.0,0.0,92,0.00,,,0.00,Wunderground v.1.15,2013-02-27 11:35:00,
2013-02-27 06:45:00,57.4,55.4,29.92,WSW,244,0.0,0.0,93,0.00,,,0.00,Wunderground v.1.15,2013-02-27 11:45:00,
2013-02-27 06:55:00,57.8,55.8,29.92,NNW,339,0.0,0.0,93,0.00,,,0.00,Wunderground v.1.15,2013-02-27 11:55:00,
2013-02-27 07:05:00,57.9,55.9,29.92,NNW,335,0.0,1.0,93,0.00,,,0.00,Wunderground v.1.15,2013-02-27 12:05:00,
2013-02-27 07:15:00,57.8,55.8,29.93,NNW,336,0.0,1.0,93,0.00,,,0.00,Wunderground v.1.15,2013-02-27 12:15:00,
2013-02-27 07:20:00,58.0,56.0,29.93,NNW,332,0.0,1.0,93,0.00,,,0.00,Wunderground v.1.15,2013-02-27 12:20:00,
2013-02-27 07:30:00,58.3,56.0,29.94,NW,322,1.0,1.0,92,0.00,,,0.00,Wunderground v.1.15,2013-02-27 12:30:00,
2013-02-27 07:40:00,58.4,55.8,29.95,NW,309,0.0,1.0,91,0.00,,,0.00,Wunderground v.1.15,2013-02-27 12:40:00,
2013-02-27 07:45:00,58.5,55.6,29.95,NNW,344,1.0,1.0,90,0.00,,,0.00,Wunderground v.1.15,2013-02-27 12:45:00,
2013-02-27 07:55:00,58.6,55.4,29.96,NNW,330,1.0,2.0,89,0.00,,,0.00,Wunderground v.1.15,2013-02-27 12:55:00,
2013-02-27 08:05:00,58.9,55.4,29.96,NNW,330,1.0,1.0,88,0.00,,,0.00,Wunderground v.1.15,2013-02-27 13:05:00,
2013-02-27 08:15:00,59.1,54.9,29.97,West,274,1.0,1.0,86,0.00,,,0.00,Wunderground v.1.15,2013-02-27 13:15:00,
2013-02-27 08:25:00,59.2,54.7,29.97,NNW,346,1.0,1.0,85,0.00,,,0.00,Wunderground v.1.15,2013-02-27 13:25:00,
2013-02-27 08:35:00,59.4,54.6,29.98,NNW,332,2.0,4.0,84,0.00,,,0.00,Wunderground v.1.15,2013-02-27 13:35:00,
2013-02-27 08:45:00,60.1,54.9,29.98,NW,322,2.0,2.0,83,0.00,,,0.00,Wunderground v.1.15,2013-02-27 13:45:00,
2013-02-27 08:50:00,60.5,55.0,29.98,NNW,340,2.0,3.0,82,0.00,,,0.00,Wunderground v.1.15,2013-02-27 13:50:00,
2013-02-27 09:00:00,61.2,54.6,29.98,NW,322,2.0,2.0,79,0.00,,,0.00,Wunderground v.1.15,2013-02-27 14:00:00,
2013-02-27 09:10:00,62.3,55.0,29.99,NNW,343,2.0,5.0,77,0.00,,,0.00,Wunderground v.1.15,2013-02-27 14:10:00,
2013-02-27 09:20:00,63.2,55.1,29.99,NNW,338,2.0,2.0,75,0.00,,,0.00,Wunderground v.1.15,2013-02-27 14:20:00,
2013-02-27 09:30:00,63.1,54.3,29.99,North,349,3.0,3.0,73,0.00,,,0.00,Wunderground v.1.15,2013-02-27 14:30:00,
2013-02-27 09:35:00,63.3,54.5,29.99,NE,39,3.0,3.0,73,0.00,,,0.00,Wunderground v.1.15,2013-02-27 14:35:00,
2013-02-27 09:45:00,63.7,54.1,29.99,NNW,339,3.0,5.0,71,0.00,,,0.00,Wunderground v.1.15,2013-02-27 14:45:00,
2013-02-27 09:55:00,64.5,55.3,29.99,NNW,347,2.0,5.0,72,0.00,,,0.00,Wunderground v.1.15,2013-02-27 14:55:00,
2013-02-27 10:05:00,65.3,54.9,29.99,WSW,253,2.0,7.0,69,0.00,,,0.00,Wunderground v.1.15,2013-02-27 15:05:00,
2013-02-27 10:15:00,65.1,54.7,30.00,NNW,339,2.0,7.0,69,0.00,,,0.00,Wunderground v.1.15,2013-02-27 15:15:00,
2013-02-27 10:20:00,65.2,55.2,30.00,NE,36,2.0,7.0,70,0.00,,,0.00,Wunderground v.1.15,2013-02-27 15:20:00,
2013-02-27 10:30:00,66.3,55.0,30.00,NW,309,2.0,2.0,67,0.00,,,0.00,Wunderground v.1.15,2013-02-27 15:30:00,
2013-02-27 10:40:00,68.2,55.1,30.00,WSW,256,0.0,0.0,63,0.00,,,0.00,Wunderground v.1.15,2013-02-27 15:40:00,
2013-02-27 10:50:00,68.1,54.1,30.00,NNW,332,2.0,2.0,61,0.00,,,0.00,Wunderground v.1.15,2013-02-27 15:50:00,
2013-02-27 10:55:00,67.9,54.8,30.00,NW,325,2.0,2.0,63,0.00,,,0.00,Wunderground v.1.15,2013-02-27 15:55:00,
2013-02-27 11:05:00,68.4,54.9,29.99,North,1,1.0,3.0,62,0.00,,,0.00,Wunderground v.1.15,2013-02-27 16:05:00,
2013-02-27 11:15:00,68.5,54.5,29.99,NNW,332,2.0,8.0,61,0.00,,,0.00,Wunderground v.1.15,2013-02-27 16:15:00,
2013-02-27 11:25:00,69.4,54.4,29.99,NW,304,1.0,8.0,59,0.00,,,0.00,Wunderground v.1.15,2013-02-27 16:25:00,
2013-02-27 11:30:00,68.8,54.3,29.99,NNW,335,2.0,2.0,60,0.00,,,0.00,Wunderground v.1.15,2013-02-27 16:30:00,
2013-02-27 11:40:00,70.1,54.6,29.98,WNW,295,2.0,2.0,58,0.00,,,0.00,Wunderground v.1.15,2013-02-27 16:40:00,
2013-02-27 11:50:00,70.6,54.1,29.98,NNW,328,1.0,1.0,56,0.00,,,0.00,Wunderground v.1.15,2013-02-27 16:50:00,
2013-02-27 12:00:00,71.2,53.7,29.98,NNW,338,1.0,1.0,54,0.00,,,0.00,Wunderground v.1.15,2013-02-27 17:00:00,
2013-02-27 12:10:00,71.9,53.8,29.98,SW,214,1.0,7.0,53,0.00,,,0.00,Wunderground v.1.15,2013-02-27 17:10:00,
2013-02-27 12:15:00,71.8,54.3,29.98,NNW,335,1.0,7.0,54,0.00,,,0.00,Wunderground v.1.15,2013-02-27 17:15:00,
2013-02-27 12:25:00,71.6,54.1,29.97,NNE,12,2.0,7.0,54,0.00,,,0.00,Wunderground v.1.15,2013-02-27 17:25:00,
2013-02-27 12:35:00,72.4,54.3,29.97,WSW,243,1.0,2.0,53,0.00,,,0.00,Wunderground v.1.15,2013-02-27 17:35:00,
2013-02-27 12:45:00,72.8,54.7,29.97,NW,304,2.0,2.0,53,0.00,,,0.00,Wunderground v.1.15,2013-02-27 17:45:00,
2013-02-27 13:00:00,73.4,53.6,29.96,SW,233,2.0,2.0,50,0.00,,,0.00,Wunderground v.1.15,2013-02-27 18:00:00,
2013-02-27 13:10:00,74.3,53.9,29.95,SW,235,2.0,2.0,49,0.00,,,0.00,Wunderground v.1.15,2013-02-27 18:10:00,
2013-02-27 13:15:00,74.7,53.1,29.95,WSW,257,2.0,5.0,47,0.00,,,0.00,Wunderground v.1.15,2013-02-27 18:15:00,
2013-02-27 13:25:00,75.4,53.2,29.94,North,1,1.0,6.0,46,0.00,,,0.00,Wunderground v.1.15,2013-02-27 18:25:00,
2013-02-27 13:30:00,76.0,53.1,29.94,SW,228,1.0,3.0,45,0.00,,,0.00,Wunderground v.1.15,2013-02-27 18:30:00,
2013-02-27 13:40:00,75.0,53.4,29.94,WSW,242,1.0,1.0,47,0.00,,,0.00,Wunderground v.1.15,2013-02-27 18:40:00,
2013-02-27 13:50:00,75.5,52.7,29.93,WSW,243,0.0,0.0,45,0.00,,,0.00,Wunderground v.1.15,2013-02-27 18:50:00,
2013-02-27 14:00:00,76.1,53.2,29.92,West,260,2.0,3.0,45,0.00,,,0.00,Wunderground v.1.15,2013-02-27 19:00:00,
2013-02-27 14:10:00,76.7,53.8,29.92,South,191,2.0,2.0,45,0.00,,,0.00,Wunderground v.1.15,2013-02-27 19:10:00,
2013-02-27 14:15:00,77.1,53.5,29.92,WSW,255,2.0,3.0,44,0.00,,,0.00,Wunderground v.1.15,2013-02-27 19:15:00,
2013-02-27 14:25:00,77.2,54.2,29.92,NNE,23,1.0,9.0,45,0.00,,,0.00,Wunderground v.1.15,2013-02-27 19:25:00,
2013-02-27 14:35:00,77.5,53.9,29.91,South,191,2.0,2.0,44,0.00,,,0.00,Wunderground v.1.15,2013-02-27 19:35:00,
2013-02-27 14:45:00,77.5,53.2,29.91,WSW,255,2.0,3.0,43,0.00,,,0.00,Wunderground v.1.15,2013-02-27 19:45:00,
2013-02-27 14:55:00,77.7,54.0,29.91,SW,231,1.0,3.0,44,0.00,,,0.00,Wunderground v.1.15,2013-02-27 19:55:00,
2013-02-27 15:00:00,77.5,53.9,29.91,NNW,335,1.0,1.0,44,0.00,,,0.00,Wunderground v.1.15,2013-02-27 20:00:00,
2013-02-27 15:10:00,77.9,53.0,29.91,SSW,210,1.0,5.0,42,0.00,,,0.00,Wunderground v.1.15,2013-02-27 20:10:00,
2013-02-27 15:15:00,78.2,52.6,29.91,NNW,346,1.0,5.0,41,0.00,,,0.00,Wunderground v.1.15,2013-02-27 20:15:00,
2013-02-27 15:25:00,77.8,52.2,29.91,WSW,238,2.0,5.0,41,0.00,,,0.00,Wunderground v.1.15,2013-02-27 20:25:00,
2013-02-27 15:35:00,78.1,51.1,29.91,NNW,341,1.0,4.0,39,0.00,,,0.00,Wunderground v.1.15,2013-02-27 20:35:00,
2013-02-27 15:40:00,78.3,51.3,29.91,WSW,238,2.0,2.0,39,0.00,,,0.00,Wunderground v.1.15,2013-02-27 20:40:00,
2013-02-27 15:50:00,78.4,50.7,29.91,SW,233,2.0,5.0,38,0.00,,,0.00,Wunderground v.1.15,2013-02-27 20:50:00,
2013-02-27 16:00:00,78.2,50.5,29.91,SW,215,2.0,2.0,38,0.00,,,0.00,Wunderground v.1.15,2013-02-27 21:00:00,
2013-02-27 16:10:00,78.0,50.3,29.91,SW,219,2.0,2.0,38,0.00,,,0.00,Wunderground v.1.15,2013-02-27 21:10:00,
2013-02-27 16:20:00,76.8,50.6,29.91,West,269,1.0,10.0,40,0.00,,,0.00,Wunderground v.1.15,2013-02-27 21:20:00,
2013-02-27 16:30:00,75.7,51.0,29.91,North,353,2.0,2.0,42,0.00,,,0.00,Wunderground v.1.15,2013-02-27 21:30:00,
2013-02-27 16:35:00,74.8,50.8,29.91,West,259,2.0,2.0,43,0.00,,,0.00,Wunderground v.1.15,2013-02-27 21:35:00,
2013-02-27 16:45:00,73.6,50.3,29.92,North,352,1.0,2.0,44,0.00,,,0.00,Wunderground v.1.15,2013-02-27 21:45:00,
2013-02-27 16:55:00,73.4,50.8,29.92,North,8,1.0,2.0,45,0.00,,,0.00,Wunderground v.1.15,2013-02-27 21:55:00,
2013-02-27 17:05:00,73.2,50.6,29.92,North,1,2.0,5.0,45,0.00,,,0.00,Wunderground v.1.15,2013-02-27 22:05:00,
2013-02-27 17:10:00,72.7,50.1,29.93,SW,228,2.0,11.0,45,0.00,,,0.00,Wunderground v.1.15,2013-02-27 22:10:00,
2013-02-27 17:20:00,71.7,50.4,29.93,SSW,205,1.0,11.0,47,0.00,,,0.00,Wunderground v.1.15,2013-02-27 22:20:00,
2013-02-27 17:30:00,70.2,50.1,29.93,NNE,15,2.0,2.0,49,0.00,,,0.00,Wunderground v.1.15,2013-02-27 22:30:00,
2013-02-27 17:40:00,68.8,49.9,29.93,WNW,295,1.0,1.0,51,0.00,,,0.00,Wunderground v.1.15,2013-02-27 22:40:00,
2013-02-27 17:50:00,67.5,50.3,29.93,North,350,1.0,1.0,54,0.00,,,0.00,Wunderground v.1.15,2013-02-27 22:50:00,
2013-02-27 17:55:00,66.9,50.2,29.94,NNW,341,1.0,1.0,55,0.00,,,0.00,Wunderground v.1.15,2013-02-27 22:55:00,
2013-02-27 18:05:00,65.6,50.0,29.94,ESE,111,1.0,7.0,57,0.00,,,0.00,Wunderground v.1.15,2013-02-27 23:05:00,
2013-02-27 18:15:00,64.3,49.7,29.94,NE,44,1.0,7.0,59,0.00,,,0.00,Wunderground v.1.15,2013-02-27 23:15:00,
2013-02-27 18:25:00,63.2,50.0,29.94,SW,214,0.0,1.0,62,0.00,,,0.00,Wunderground v.1.15,2013-02-27 23:25:00,
2013-02-27 18:35:00,62.2,49.9,29.94,South,191,0.0,0.0,64,0.00,,,0.00,Wunderground v.1.15,2013-02-27 23:35:00,
2013-02-27 18:40:00,61.7,50.2,29.95,North,349,0.0,0.0,66,0.00,,,0.00,Wunderground v.1.15,2013-02-27 23:40:00,
2013-02-27 18:50:00,60.9,50.3,29.95,NNE,26,0.0,0.0,68,0.00,,,0.00,Wunderground v.1.15,2013-02-27 23:50:00,
2013-02-27 19:00:00,60.3,50.1,29.95,NNW,333,0.0,0.0,69,0.00,,,0.00,Wunderground v.1.15,2013-02-28 00:00:00,
2013-02-27 19:10:00,59.7,49.9,29.95,SSW,205,0.0,5.0,70,0.00,,,0.00,Wunderground v.1.15,2013-02-28 00:10:00,
2013-02-27 19:20:00,59.3,49.9,29.96,WSW,249,0.0,5.0,71,0.00,,,0.00,Wunderground v.1.15,2013-02-28 00:20:00,
2013-02-27 19:25:00,59.1,50.1,29.96,West,262,0.0,5.0,72,0.00,,,0.00,Wunderground v.1.15,2013-02-28 00:25:00,
2013-02-27 19:30:00,59.0,50.0,29.96,NE,39,0.0,0.0,72,0.00,,,0.00,Wunderground v.1.15,2013-02-28 00:30:00,
2013-02-27 19:40:00,58.4,49.8,29.96,SW,214,0.0,0.0,73,0.00,,,0.00,Wunderground v.1.15,2013-02-28 00:40:00,
2013-02-27 19:50:00,57.8,49.6,29.96,NNE,19,0.0,0.0,74,0.00,,,0.00,Wunderground v.1.15,2013-02-28 00:50:00,
2013-02-27 20:00:00,57.2,49.7,29.97,WSW,248,0.0,0.0,76,0.00,,,0.00,Wunderground v.1.15,2013-02-28 01:00:00,
2013-02-27 20:10:00,56.5,49.4,29.97,NNW,339,0.0,1.0,77,0.00,,,0.00,Wunderground v.1.15,2013-02-28 01:10:00,
2013-02-27 20:20:00,56.0,49.2,29.96,SW,225,0.0,1.0,78,0.00,,,0.00,Wunderground v.1.15,2013-02-28 01:20:00,
2013-02-27 20:30:00,55.6,49.2,29.97,NNW,342,0.0,0.0,79,0.00,,,0.00,Wunderground v.1.15,2013-02-28 01:30:00,
2013-02-27 20:35:00,55.4,49.0,29.97,SW,228,0.0,0.0,79,0.00,,,0.00,Wunderground v.1.15,2013-02-28 01:35:00,
2013-02-27 20:40:00,55.3,48.9,29.97,West,281,0.0,0.0,79,0.00,,,0.00,Wunderground v.1.15,2013-02-28 01:40:00,
2013-02-27 20:50:00,55.0,48.6,29.97,ENE,63,0.0,0.0,79,0.00,,,0.00,Wunderground v.1.15,2013-02-28 01:50:00,
2013-02-27 21:00:00,54.6,48.6,29.98,WSW,249,0.0,0.0,80,0.00,,,0.00,Wunderground v.1.15,2013-02-28 02:00:00,
2013-02-27 21:10:00,54.5,48.5,29.97,SW,231,0.0,2.0,80,0.00,,,0.00,Wunderground v.1.15,2013-02-28 02:10:00,
2013-02-27 21:20:00,54.3,48.6,29.97,NW,321,0.0,2.0,81,0.00,,,0.00,Wunderground v.1.15,2013-02-28 02:20:00,
2013-02-27 21:25:00,54.3,48.6,29.97,WNW,287,0.0,2.0,81,0.00,,,0.00,Wunderground v.1.15,2013-02-28 02:25:00,
2013-02-27 21:35:00,54.1,48.4,29.98,SSW,207,0.0,0.0,81,0.00,,,0.00,Wunderground v.1.15,2013-02-28 02:35:00,
2013-02-27 21:45:00,53.8,48.1,29.98,WSW,242,0.0,0.0,81,0.00,,,0.00,Wunderground v.1.15,2013-02-28 02:45:00,
2013-02-27 21:55:00,53.6,48.2,29.98,NNW,331,0.0,0.0,82,0.00,,,0.00,Wunderground v.1.15,2013-02-28 02:55:00,
2013-02-27 22:00:00,53.4,48.0,29.98,North,354,0.0,1.0,82,0.00,,,0.00,Wunderground v.1.15,2013-02-28 03:00:00,
2013-02-27 22:10:00,53.0,48.0,29.98,North,354,0.0,2.0,83,0.00,,,0.00,Wunderground v.1.15,2013-02-28 03:10:00,
2013-02-27 22:20:00,52.7,48.0,29.98,West,263,0.0,2.0,84,0.00,,,0.00,Wunderground v.1.15,2013-02-28 03:20:00,
2013-02-27 22:30:00,52.4,47.7,29.98,WSW,243,0.0,0.0,84,0.00,,,0.00,Wunderground v.1.15,2013-02-28 03:30:00,
2013-02-27 22:35:00,52.4,47.7,29.98,West,267,0.0,0.0,84,0.00,,,0.00,Wunderground v.1.15,2013-02-28 03:35:00,
2013-02-27 22:45:00,52.1,47.7,29.98,NNE,22,0.0,0.0,85,0.00,,,0.00,Wunderground v.1.15,2013-02-28 03:45:00,
2013-02-27 22:54:00,51.8,47.4,29.99,SSE,167,0.0,0.0,85,0.00,,,0.00,Wunderground v.1.15,2013-02-28 03:54:00,
2013-02-27 23:00:00,51.7,47.3,29.99,SSW,198,0.0,0.0,85,0.00,,,0.00,Wunderground v.1.15,2013-02-28 04:00:00,
2013-02-27 23:10:00,51.6,47.5,29.99,NW,322,0.0,2.0,86,0.00,,,0.00,Wunderground v.1.15,2013-02-28 04:10:00,
2013-02-27 23:20:00,51.4,47.4,29.99,NNW,330,0.0,2.0,86,0.00,,,0.00,Wunderground v.1.15,2013-02-28 04:20:00,
2013-02-27 23:30:00,51.2,47.5,29.99,WNW,285,0.0,0.0,87,0.00,,,0.00,Wunderground v.1.15,2013-02-28 04:30:00,
2013-02-27 23:40:00,50.8,47.1,29.98,WNW,287,0.0,0.0,87,0.00,,,0.00,Wunderground v.1.15,2013-02-28 04:40:00,
2013-02-27 23:50:00,50.6,47.2,29.99,NNW,330,0.0,0.0,88,0.00,,,0.00,Wunderground v.1.15,2013-02-28 04:50:00,